AirNav   Air Wisconsin Up To $57,000 Bonus
 
 295 users online  

KPYP Centre-Piedmont-Cherokee County Regional Airport
Centre, Alabama, USA

GOING TO CENTRE?


FAA INFORMATION EFFECTIVE 10 OCTOBER 2019

Location

FAA Identifier: PYP
Lat/Long: 34-05-23.7000N 085-36-36.3000W
34-05.395000N 085-36.605000W
34.0899167,-85.6100833
(estimated)
Elevation: 594.6 ft. / 181 m (estimated)
Variation: 04W (2010)
From city: 5 miles S of CENTRE, AL
Time zone: UTC -5 (UTC -6 during Standard Time)
Zip code: 35960

Airport Operations

Airport use: Open to the public
Activation date: 09/2007
Control tower: no
ARTCC: ATLANTA CENTER
FSS: ANNISTON FLIGHT SERVICE STATION
NOTAMs facility: ANB (NOTAM-D service available)
Attendance: UNATNDD
Wind indicator: lighted
Segmented circle: yes
Lights: ACTVT MIRL RY 07/25 - CTAF.
Beacon: white-green (lighted land airport)
Operates sunset to sunrise.

Airport Communications

CTAF: 122.9
  • APCH/DEP SVC PRVDD BY ATLANTA ARTCC ON FREQS 124.5/270.325 (GADSDEN RCAG).

Nearby radio navigation aids

VOR radial/distance  VOR name  Freq  Var
GADr072/24.5GADSDEN VOR/DME112.3002E
RMGr259/24.8ROME VORTAC115.4001E
TDGr033/37.7TALLADEGA VOR/DME108.8002E

 
NDB name  Hdg/Dist  Freq  Var  ID
FORT PAYNE177/26.142604WFTP ..-. - .--.
CARTERSVILLE264/38.730804WEVZ . ...- --..
CARROLLTON327/39.527804WGPQ --. .--. --.-

Airport Services

Fuel available: 100LL
Parking: tiedowns

Runway Information

Runway 7/25

Dimensions: 5500 x 100 ft. / 1676 x 30 m
Surface: asphalt/aggregate friction seal coat, in good condition
Runway edge lights: medium intensity
RUNWAY 7  RUNWAY 25
Latitude: 34-05.189240N34-05.601052N
Longitude: 085-37.089855W085-36.118890W
Elevation: 584.4 ft.594.6 ft.
Traffic pattern: leftleft
Runway heading: 067 magnetic, 063 true247 magnetic, 243 true
Markings: nonprecision, in good conditionnonprecision, in good condition
Touchdown point: yes, no lightsyes, no lights
Obstructions: 65 ft. trees, 2929 ft. from runway, 261 ft. left of centerline, 41:1 slope to clearnone

Airport Ownership and Management from official FAA records

Ownership: Publicly-owned
Owner: CPCCR AIRPORT AUTHORITY
P.O. BOX 466
CENTRE, AL 35960
Phone (256) 927-8008
Manager: DONNIE FREE
P.O. 466
CENTRE, AL 35960
Phone (256) 557-0404

Airport Operational Statistics

Aircraft based on the field: 23
Single engine airplanes: 22
Multi engine airplanes: 1
    
Aircraft operations: avg 44/day *
51% transient general aviation
49% local general aviation
* for 12-month period ending 31 March 2019

Additional Remarks

FOR CD CTC ATLANTA ARTCC AT 770-210-7692.

Instrument Procedures

NOTE: All procedures below are presented as PDF files. If you need a reader for these files, you should download the free Adobe Reader.

NOT FOR NAVIGATION. Please procure official charts for flight.
FAA instrument procedures published for use from 10 October 2019 at 0901Z to 7 November 2019 at 0900Z.

 
IAPs - Instrument Approach Procedures
RNAV (GPS) RWY 07 **CHANGED**   download (217KB)
RNAV (GPS) RWY 25 **CHANGED**   download (192KB)
NOTE: Special Take-Off Minimums/Departure Procedures apply   download (189KB)

Other nearby airports with instrument procedures:

4A4 - Polk County Airport - Cornelius Moore Field (23 nm E)
4A9 - Isbell Field Airport (24 nm N)
KGAD - Northeast Alabama Regional Airport (25 nm W)
KRMG - Richard B. Russell Regional Airport - J.H. Towers Field (27 nm NE)
KANB - Anniston Regional Airport (33 nm S)
 
Loc | Ops | Rwys | IFR | FBO | Links
Com | Nav | Svcs | Stats | Notes
Area around KPYP (Centre-Piedmont-Cherokee County Regional Airport)
 
Road maps at: MapQuest Bing Google
 
Aerial photo
WARNING: Photo may not be current or correct
Aerial photo of KPYP (Centre-Piedmont-Cherokee County Regional Airport)
Photo by Harley McGatha
Photo taken 10-Nov-2007
from a PA24-260B Comanche

Do you have a better or more recent aerial photo of Centre-Piedmont-Cherokee County Regional Airport that you would like to share? If so, please send us your photo.

 
Sectional chart

 
Airport distance calculator
Flying to Centre-Piedmont-Cherokee County Regional Airport? Find the distance to fly.

From to KPYP

Sunrise and sunset
Times for 22-Oct-2019
 Local
(UTC-5)
 Zulu
(UTC)
Morning civil twilight06:2911:29
Sunrise06:5411:54
Sunset18:0023:00
Evening civil twilight18:2523:25

Current date and time
Zulu (UTC)  22-Oct-2019 07:16:59
Local (UTC-5)  22-Oct-2019 02:16:59
 
METAR
K4A9 
24nm N 
220655Z AUTO 28003KT 10SM -RA OVC012 17/15 A2992 RMK AO2 P0001 T01670154
KGAD 
24nm W 
220656Z AUTO 30008KT 10SM SCT014 OVC030 16/14 A2991 RMK AO2 RAB15E41 SLP128 P0002 T01610139
KRMG 
27nm NE 
220653Z AUTO 19003KT 10SM BKN026 OVC032 19/18 A2984 RMK AO2 SLP096 T01940178
KANB 
33nm S 
220653Z AUTO 29003KT 10SM FEW018 BKN043 BKN095 21/19 A2987 RMK AO2 RAB13E30 SLP107 P0000 T02060189
K8A0 
33nm W 
220655Z AUTO 01003KT 10SM OVC030 13/11 A2991 RMK AO2
KPUJ 
35nm E 
220655Z AUTO 16005KT 10SM -RA BKN026 BKN036 OVC050 18/18 A2989 RMK AO2
KCTJ 
36nm SE 
220655Z AUTO 00000KT 10SM SCT022 BKN042 BKN060 19/17 A2993 RMK AO2 T01880170
KVPC 
38nm E 
220653Z AUTO 15008KT 10SM -RA FEW033 OVC065 21/17 A2987 RMK AO2 RAB46 SLP103 P0000 T02110172
KASN 
38nm SW 
220655Z AUTO 26014G23KT 10SM BKN017 BKN026 OVC044 20/19 A2989 RMK AO2 T02020192
K9A5 
39nm NE 
220655Z AUTO 22005KT 4SM SCT017 BKN034 OVC041 18/18 A2987 RMK AO2 T01780177
TAF
KANB 
33nm S 
220520Z 2206/2306 VRB03KT P6SM VCSH SCT035 OVC060 TEMPO 2206/2208 4SM -SHRA BR OVC015 FM220800 28004KT P6SM OVC015 FM221000 28004KT P6SM OVC050 FM221600 28011G19KT P6SM SKC FM230000 29003KT P6SM SKC
KASN 
38nm SW 
220520Z 2206/2306 VRB03KT P6SM VCSH SCT035 OVC060 TEMPO 2206/2208 4SM -SHRA BR OVC015 FM220800 28004KT P6SM OVC015 FM221000 28004KT P6SM OVC050 FM221600 28011G19KT P6SM SKC FM230000 29003KT P6SM SKC
NOTAMs
Click for the latest NOTAMs
NOTAMs are issued by the DoD/FAA and will open in a separate window not controlled by AirNav.

 

 
 

FBO, Fuel Providers, and Aircraft Ground Support

  
 Business Name 
 
 Contact 
 
 Services / Description 
 
Fuel Prices
 
Comments
  
Centre-Piedmont-Cherokee County Regional Airport 256-927-8009
[email]
Airport management, Aviation fuel, Aircraft parking (ramp or tiedown), Hangar leasing / sales, Passenger terminal and lounge, Aircraft maintenance, ...

More info about Centre-Piedmont-Cherokee County Regional Airport
Phillips 66
100LL
SS $4.40 
 Updated 24-Apr-2019
 
   2 read write
SS=Self service
Update Fuel Prices
 

Would you like to see your business listed on this page?

 If your business provides an interesting product or service to pilots, flight crews, aircraft, or users of the Centre-Piedmont-Cherokee County Regional Airport, you should consider listing it here.  To start the listing process, click on the button below
 
Add a business
 

Other Pages about Centre-Piedmont-Cherokee County Regional Airport

Update a link
 
Copyright © AirNav, LLC. All rights reserved. Privacy Policy  Contact